Flag for Moldova Weather past 2 weeks in Tiraspol, Moldova

Now
36 °F

Clear.


Feels Like: 30 °F
Forecast: 28 / 34 °F
Wind: 7 mph from Northeast

Location: Chisinau International Airport

Current Time: Dec 26, 2014 at 9:25:41 PM

Latest Report: Dec 26, 2014 at 9:00 PM


Visibility: 4 mi

Pressure: 30.07 "Hg

Humidity: 75%

Dew point: 28 °F

Location of TiraspolLocation

Historic Weather in Tiraspol — Graph

°F

Tiraspol temperature yesterday

Maximum temperature yesterday: 48 °F (at 1:30 PM)
Minimum temperature yesterday: 34 °F (at 5:30 AM)
Average temperature yesterday: 41 °F

Past Weeks' High & Low Weather Summary

 TemperatureHumidityPressure
High57 °F (Dec 24, 1:00 PM)93% (Dec 11, 8:00 PM)30.24 "Hg (Dec 11, 8:00 PM)
Low25 °F (Dec 15, 4:00 AM)39% (Dec 24, 1:30 PM)29.77 "Hg (Dec 23, 4:00 AM)
Average39 °F75%30.03 "Hg
* Reported Dec 11 8:00 PM — Dec 26 8:00 PM, Tiraspol, Weather by CustomWeather, © 2014

Note: Actual official high and low records may vary slightly from our data, if they occured in-between our weather recording intervals... More about our weather records

Advertising

Tiraspol weather history for previous 24 hours

 ConditionsComfort  
Time TempWeatherWind HumidityBarometerVisibility
8:00 PM
Dec 26
36 °FPassing clouds.6 mph81%30.09 "Hg5 mi
7:30 PM37 °FPassing clouds.7 mph75%30.09 "Hg5 mi
7:00 PM37 °FPassing clouds.5 mph70%30.09 "Hg4 mi
6:30 PM37 °FClear.5 mph75%30.09 "Hg10 mi
6:00 PM37 °FClear.6 mph70%30.09 "Hg10 mi
5:30 PM37 °FClear.6 mph75%30.09 "Hg10 mi
5:00 PM37 °FClear.5 mph75%30.09 "Hg10 mi
4:30 PM39 °FClear.5 mph65%30.09 "Hg10 mi
4:00 PM39 °FSunny.7 mph70%30.09 "Hg10 mi
3:30 PM39 °FSunny.7 mph65%30.07 "Hg10 mi
3:00 PM39 °FSunny.6 mph65%30.07 "Hg10 mi
2:30 PM41 °FSunny.6 mph61%30.07 "Hg10 mi
2:00 PM41 °FPassing clouds.6 mph61%30.07 "HgN/A
1:30 PM41 °FSunny.8 mph61%30.07 "Hg10 mi
1:00 PM41 °FPassing clouds.8 mph61%30.07 "HgN/A
12:30 PM41 °FPassing clouds.6 mph61%30.07 "HgN/A
12:00 PM39 °FPassing clouds.5 mph70%30.09 "HgN/A
11:30 AM39 °FSunny.6 mph70%30.09 "Hg10 mi
11:00 AM39 °FSunny.6 mph70%30.09 "Hg10 mi
10:30 AM39 °FPassing clouds.3 mph70%30.09 "HgN/A
10:00 AM39 °FSunny.2 mph70%30.09 "Hg10 mi
9:30 AM37 °FSunny.No wind75%30.09 "Hg10 mi
9:00 AM37 °FSunny.2 mph75%30.09 "Hg10 mi
8:30 AM37 °FSunny.1 mph75%30.09 "Hg10 mi
8:00 AM37 °FPassing clouds.5 mph75%30.07 "HgN/A
7:30 AM37 °FPassing clouds.6 mph75%30.07 "HgN/A
7:00 AM39 °FOvercast.7 mph65%30.07 "HgN/A
6:30 AM39 °FOvercast.8 mph70%30.07 "HgN/A
6:00 AM39 °FOvercast.7 mph65%30.07 "HgN/A
5:30 AM39 °FOvercast.6 mph65%30.07 "HgN/A
4:30 AM39 °FPassing clouds.5 mph65%30.07 "HgN/A
4:00 AM39 °FPassing clouds.5 mph65%30.07 "HgN/A
3:30 AM41 °FPassing clouds.6 mph66%30.04 "HgN/A
3:00 AM41 °FPassing clouds.5 mph66%30.04 "HgN/A
2:30 AM41 °FPassing clouds.3 mph66%30.04 "HgN/A
2:00 AM41 °FPassing clouds.3 mph66%30.04 "HgN/A
1:30 AM41 °FPassing clouds.3 mph66%30.04 "HgN/A
1:00 AM41 °FPassing clouds.5 mph66%30.04 "HgN/A
12:30 AM41 °FPassing clouds.6 mph66%30.04 "HgN/A
12:00 AM41 °FOvercast.6 mph66%30.04 "HgN/A
11:00 PM
Dec 25
43 °FOvercast.2 mph61%30.04 "HgN/A
10:30 PM41 °FOvercast.No wind70%30.01 "HgN/A
10:00 PM39 °FPassing clouds.5 mph75%30.01 "HgN/A
9:30 PM45 °FPassing clouds.2 mph57%30.01 "HgN/A
9:00 PM43 °FPassing clouds.3 mph61%30.01 "HgN/A
Weather by CustomWeather, © 2014

See weather overviewHow to use our weather pages